Météo par heure à Al Kharj

Ce jour, 31 Octobre, Samedi

Heure Température Précipitation Vent Pression Humidité
00:00 +20°C° 0 mm 2 m/s 724 mmHg 34%
01:00 +20°C° 0 mm 1 m/s 724 mmHg 37%
02:00 +19°C° 0 mm 1 m/s 724 mmHg 39%
03:00 +16°C° 0 mm 0 m/s 724 mmHg 41%
04:00 +16°C° 0 mm 0 m/s 724 mmHg 43%
05:00 +16°C° 0 mm 0 m/s 724 mmHg 45%
06:00 +15°C° 0 mm 0 m/s 724 mmHg 47%
07:00 +19°C° 0 mm 0 m/s 725 mmHg 39%
08:00 +24°C° 0 mm 1 m/s 726 mmHg 31%
09:00 +28°C° 0 mm 1 m/s 726 mmHg 23%
10:00 +29°C° 0 mm 2 m/s 726 mmHg 21%
11:00 +31°C° 0 mm 2 m/s 726 mmHg 18%
12:00 +33°C° 0 mm 3 m/s 725 mmHg 15%
13:00 +33°C° 0 mm 3 m/s 725 mmHg 15%
14:00 +34°C° 0 mm 3 m/s 724 mmHg 14%
15:00 +34°C° 0 mm 3 m/s 724 mmHg 13%
16:00 +31°C° 0 mm 3 m/s 724 mmHg 16%
17:00 +29°C° 0 mm 3 m/s 724 mmHg 19%
18:00 +26°C° 0 mm 3 m/s 724 mmHg 21%
19:00 +26°C° 0 mm 3 m/s 724 mmHg 23%
20:00 +25°C° 0 mm 3 m/s 724 mmHg 25%
21:00 +25°C° 0 mm 3 m/s 724 mmHg 26%
22:00 +24°C° 0 mm 3 m/s 724 mmHg 28%
23:00 +23°C° 0 mm 2 m/s 724 mmHg 30%

Demain, 1 Novembre, Dimanche

Heure Température Précipitation Vent Pression Humidité
00:00 +21°C° 0 mm 2 m/s 724 mmHg 32%
01:00 +21°C° 0 mm 1 m/s 724 mmHg 34%
02:00 +20°C° 0 mm 1 m/s 724 mmHg 35%
03:00 +17°C° 0 mm 0 m/s 723 mmHg 37%
04:00 +19°C° 0 mm 1 m/s 724 mmHg 38%
05:00 +18°C° 0 mm 1 m/s 724 mmHg 38%
06:00 +18°C° 0 mm 1 m/s 725 mmHg 39%
07:00 +20°C° 0 mm 2 m/s 725 mmHg 33%
08:00 +25°C° 0 mm 2 m/s 726 mmHg 27%
09:00 +28°C° 0 mm 2 m/s 727 mmHg 21%
10:00 +29°C° 0 mm 3 m/s 726 mmHg 19%
11:00 +31°C° 0 mm 3 m/s 726 mmHg 17%
12:00 +34°C° 0 mm 3 m/s 726 mmHg 15%
13:00 +34°C° 0 mm 3 m/s 725 mmHg 15%
14:00 +34°C° 0 mm 2 m/s 725 mmHg 14%
15:00 +35°C° 0 mm 2 m/s 724 mmHg 13%
16:00 +31°C° 0 mm 2 m/s 725 mmHg 16%
17:00 +29°C° 0 mm 2 m/s 725 mmHg 18%
18:00 +27°C° 0 mm 2 m/s 725 mmHg 21%
19:00 +26°C° 0 mm 3 m/s 725 mmHg 22%
20:00 +26°C° 0 mm 3 m/s 725 mmHg 23%
21:00 +25°C° 0 mm 4 m/s 725 mmHg 24%
22:00 +24°C° 0 mm 3 m/s 725 mmHg 26%
23:00 +22°C° 0 mm 3 m/s 725 mmHg 28%

Après-demain, 2 Novembre, Lundi

Heure Température Précipitation Vent Pression Humidité
00:00 +23°C° 0 mm 2 m/s 725 mmHg 30%
01:00 +20°C° 0 mm 2 m/s 725 mmHg 32%
02:00 +20°C° 0 mm 1 m/s 725 mmHg 34%
03:00 +17°C° 0 mm 0 m/s 724 mmHg 36%
04:00 +19°C° 0 mm 1 m/s 725 mmHg 36%
05:00 +19°C° 0 mm 1 m/s 725 mmHg 37%
06:00 +19°C° 0 mm 1 m/s 725 mmHg 37%
07:00 +21°C° 0 mm 2 m/s 726 mmHg 32%
08:00 +25°C° 0 mm 2 m/s 727 mmHg 26%
09:00 +28°C° 0 mm 3 m/s 727 mmHg 21%
10:00 +30°C° 0 mm 3 m/s 727 mmHg 19%
11:00 +31°C° 0 mm 3 m/s 726 mmHg 17%
12:00 +34°C° 0 mm 3 m/s 726 mmHg 15%
13:00 +34°C° 0 mm 3 m/s 726 mmHg 14%
14:00 +35°C° 0 mm 2 m/s 725 mmHg 13%
15:00 +35°C° 0 mm 2 m/s 725 mmHg 13%
16:00 +32°C° 0 mm 2 m/s 725 mmHg 15%
17:00 +29°C° 0 mm 2 m/s 725 mmHg 17%
18:00 +27°C° 0 mm 3 m/s 725 mmHg 20%
19:00 +26°C° 0 mm 3 m/s 725 mmHg 21%
20:00 +26°C° 0 mm 3 m/s 725 mmHg 22%
21:00 +25°C° 0 mm 4 m/s 726 mmHg 23%
22:00 +24°C° 0 mm 3 m/s 725 mmHg 25%
23:00 +22°C° 0 mm 3 m/s 725 mmHg 26%

3 Novembre, Mardi

Heure Température Précipitation Vent Pression Humidité
00:00 +22°C° 0 mm 3 m/s 725 mmHg 28%
01:00 +21°C° 0 mm 2 m/s 725 mmHg 29%
02:00 +21°C° 0 mm 1 m/s 725 mmHg 30%
03:00 +20°C° 0 mm 1 m/s 725 mmHg 32%
04:00 +20°C° 0 mm 1 m/s 725 mmHg 32%
05:00 +20°C° 0 mm 1 m/s 725 mmHg 32%
06:00 +18°C° 0 mm 2 m/s 725 mmHg 33%
07:00 +21°C° 0 mm 2 m/s 726 mmHg 28%
08:00 +26°C° 0 mm 2 m/s 726 mmHg 23%
09:00 +29°C° 0 mm 3 m/s 727 mmHg 19%
10:00 +30°C° 0 mm 3 m/s 726 mmHg 17%
11:00 +33°C° 0 mm 3 m/s 726 mmHg 15%
12:00 +34°C° 0 mm 3 m/s 726 mmHg 13%
13:00 +34°C° 0 mm 3 m/s 725 mmHg 13%
14:00 +35°C° 0 mm 2 m/s 725 mmHg 12%
15:00 +35°C° 0 mm 2 m/s 724 mmHg 11%
16:00 +32°C° 0 mm 2 m/s 724 mmHg 13%
17:00 +29°C° 0 mm 2 m/s 724 mmHg 15%
18:00 +27°C° 0 mm 3 m/s 724 mmHg 17%
19:00 +26°C° 0 mm 3 m/s 724 mmHg 18%
20:00 +26°C° 0 mm 3 m/s 724 mmHg 19%
21:00 +25°C° 0 mm 3 m/s 725 mmHg 21%
22:00 +24°C° 0 mm 3 m/s 724 mmHg 22%
23:00 +22°C° 0 mm 3 m/s 724 mmHg 24%

4 Novembre, Mercredi

Heure Température Précipitation Vent Pression Humidité
00:00 +21°C° 0 mm 2 m/s 724 mmHg 25%
01:00 +20°C° 0 mm 2 m/s 724 mmHg 26%
02:00 +19°C° 0 mm 2 m/s 724 mmHg 28%
03:00 +20°C° 0 mm 1 m/s 723 mmHg 29%
04:00 +19°C° 0 mm 1 m/s 723 mmHg 29%
05:00 +19°C° 0 mm 1 m/s 723 mmHg 30%
06:00 +18°C° 0 mm 1 m/s 724 mmHg 31%
07:00 +22°C° 0 mm 1 m/s 724 mmHg 26%
08:00 +25°C° 0 mm 2 m/s 725 mmHg 21%
09:00 +28°C° 0 mm 2 m/s 725 mmHg 16%
10:00 +30°C° 0 mm 2 m/s 725 mmHg 15%
11:00 +31°C° 0 mm 2 m/s 724 mmHg 13%
12:00 +34°C° 0 mm 2 m/s 724 mmHg 12%
13:00 +34°C° 0 mm 2 m/s 723 mmHg 11%
14:00 +33°C° 0 mm 1 m/s 723 mmHg 10%
15:00 +34°C° 0 mm 1 m/s 722 mmHg 10%
16:00 +31°C° 0 mm 1 m/s 722 mmHg 12%
17:00 +28°C° 0 mm 2 m/s 722 mmHg 14%
18:00 +26°C° 0 mm 2 m/s 722 mmHg 16%
19:00 +25°C° 0 mm 2 m/s 722 mmHg 17%
20:00 +25°C° 0 mm 2 m/s 722 mmHg 18%
21:00 +24°C° 0 mm 2 m/s 723 mmHg 19%
22:00 +23°C° 0 mm 2 m/s 722 mmHg 19%
23:00 +23°C° 0 mm 2 m/s 722 mmHg 20%

5 Novembre, Jeudi

Heure Température Précipitation Vent Pression Humidité
00:00 +21°C° 0 mm 2 m/s 722 mmHg 20%
01:00 +21°C° 0 mm 2 m/s 722 mmHg 20%
02:00 +20°C° 0 mm 3 m/s 722 mmHg 20%
03:00 +20°C° 0 mm 3 m/s 721 mmHg 21%
04:00 +19°C° 0 mm 2 m/s 721 mmHg 21%
05:00 +19°C° 0 mm 2 m/s 722 mmHg 22%
06:00 +18°C° 0 mm 2 m/s 722 mmHg 23%
07:00 +21°C° 0 mm 2 m/s 722 mmHg 19%
08:00 +26°C° 0 mm 3 m/s 723 mmHg 16%
09:00 +29°C° 0 mm 4 m/s 723 mmHg 12%
10:00 +32°C° 0 mm 4 m/s 723 mmHg 11%
11:00 +33°C° 0 mm 4 m/s 722 mmHg 10%
12:00 +35°C° 0 mm 4 m/s 722 mmHg 8%
13:00 +35°C° 0 mm 3 m/s 722 mmHg 8%
14:00 +35°C° 0 mm 3 m/s 721 mmHg 8%
15:00 +36°C° 0 mm 2 m/s 720 mmHg 7%
16:00 +32°C° 0 mm 2 m/s 720 mmHg 9%
17:00 +30°C° 0 mm 3 m/s 720 mmHg 10%
18:00 +27°C° 0 mm 3 m/s 720 mmHg 12%
19:00 +26°C° 0 mm 3 m/s 720 mmHg 13%
20:00 +26°C° 0 mm 3 m/s 720 mmHg 14%
21:00 +25°C° 0 mm 3 m/s 721 mmHg 15%
22:00 +24°C° 0 mm 3 m/s 720 mmHg 15%
23:00 +22°C° 0 mm 4 m/s 720 mmHg 16%
Voir plus

Nous avons besoin de votre consentement

Meteoprog et ses fournisseurs de services peuvent stocker et accéder à des données personnelles telles que des cookies, des identifiants d'appareils ou d'autres technologies similaires sur votre appareil et traiter ces données pour personnaliser le contenu et les publicités, ainsi que pour fournir des fonctionnalités de médias sociaux et analyser le trafic.

  • Stocker et/ou accéder à des informations sur votre appareil

    Des cookies, des identifiants d'appareils ou d'autres informations peuvent être stockés ou accessibles sur votre appareil aux fins indiquées ci-dessus.

  • Annonces et contenus personnalisés, mesure des annonces et des contenus, connaissance de l'audience et développement de produits

    Les annonces et le contenu peuvent être personnalisés en fonction d'un profil. D'autres données peuvent être ajoutées pour mieux personnaliser les annonces et le contenu. Les performances des publicités et du contenu peuvent être mesurées. Il est possible d'obtenir des informations sur le public qui a vu les publicités et le contenu. Ces données peuvent être utilisées pour développer ou améliorer l'expérience de l'utilisateur, les systèmes et les logiciels.

En cliquant sur "J'accepte", vous autorisez l'utilisation de cookies, des identifiants d'appareils, des balises web ou d'autres technologies similaires. Vos paramètres peuvent être modifiés dans le navigateur de votre appareil.

Dans certains cas, des intérêts légitimes peuvent être invoqués plutôt qu'un consentement. Vous pouvez en savoir plus à ce sujet dans notre Politique de confidentialité et de cookies.